SCP
0 0 0 0 0 0 0 0 0 0 0 0 0 0 0 0 0 0 0 0 0 0 0 0 0 0 0 0 -0 0 -0 -0 -0 -0 -0 -0 -0 0 0 0 0 0 0 0 0 0 -0
0 0 0 0 0 0 0 0 0 0 0 0 0 0 0 0 0 0 0 0 0 0 0 0 0 0 -0 0 0 0 -0 -0 -0 0 0 0 0 0 0 0 -0 0 0 0 0 -0 0
0 0 0 0 0 0 0 0 0 0 0 0 0 0 0 0 0 0 0 0 0 0 0 0 0 -0 -0 0 0 0 -0 -0 -0 -0 -0 0 0 0 0 0 0 0 0 -0 -0 -0 0
0 0 0 0 0 0 0 0 0 0 0 0 0 0 0 0 0 0 0 0 0 0 0 0 0 -0 -0 -0 -0 0 -0 -0 -0 -0 -0 0 0 0 0 0 0 0 0 -0 -0 -0 -0
0 0 0 0 0 0 0 0 0 0 0 0 0 0 0 0 0 0 0 0 0 0 0 -0 -0 -0 -0 0 0 0 -0 -0 0 0 0 0 0 0 0 0 0 0 0 0 -0 0 -0
0 0 0 0 0 0 0 0 0 0 0 0 0 0 0 0 0 0 0 0 0 -0 -0 -0 -0 -0 -0 -0 0 0 -0 0 0 -0 0 0 0 0 0 0 0 0 -0 -0 -0 -0 0
0 0 0 0 0 0 0 0 0 0 0 0 0 0 0 0 0 0 0 0 0 0 -0 0 0 -0 0 0 -0 -0 0 0 0 -0 0 0 0 0 0 0 -0 -0 0 0 -0 0 -0
0 0 0 0 0 0 0 0 0 0 0 0 0 0 0 0 0 0 0 0 0 0 -0 -0 -0 0 0 -0 -0 0 -0 0 0 0 0 0 0 -0 0 0 0 0 0 0 0 0 0
0 0 0 0 0 0 0 0 0 0 0 0 0 0 0 0 0 0 -0 0 0 -0 -0 0 -0 -0 -0 -0 -0 0 0 0 -0 0 0 0 0 0 0 0 -0 0 -0 -0 -0 -0 -0
0 0 0 0 0 0 0 0 0 0 0 0 0 0 0 0 0 -0 -0 -0 -0 0 0 0 0 0 0 0 0 0 0 0 0 0 0 0 -0 0 0 0 0 -0 0 0 0 -0 -0
0 0 0 0 0 0 0 0 0 0 0 0 0 0 0 -0 0 0 0 -0 0 -0 0 0 0 0 0 0 0 0 0 0 0 -0 0 -0 0 0 0 0 0 0 0 0 0 -0 0
0 0 0 0 0 0 0 0 0 0 0 0 0 0 0 0 0 0 0 0 -0 0 0 0 0 0 0 0 0 0 0 0 0 0 0 0 0 0 0 0 0 0 0 0 0 -0 -0
0 0 0 0 0 0 0 0 0 0 0 0 0 0 0 0 0 0 0 0 0 0 0 0 -0 -0 0 0 0 0 0 0 0 0 0 0 0 0 0 0 0 -0 -0 0 0 -0 -0
0 0 0 0 0 0 0 0 0 0 0 0 0 0 0 0 0 0 -0 0 0 0 0 0 0 0 -0 0 0 0 -0 0 0 0 0 0 0 0 0 -0 0 0 -0 0 -0 0 0
0 0 0 0 0 0 0 0 0 0 0 0 0 0 0 -0 0 0 0 0 -0 -0 0 0 0 0 -0 0 0 0 0 0 -0 0 0 0 0 0 0 0 0 0 0 0 0 0 0
0 0 0 0 0 0 0 0 0 0 0 0 0 0 0 0 0 0 0 0 -0 0 0 0 0 0 0 0 0 0 0 0 0 0 0 0 0 0 0 0 0 0 0 0 0 0 -0
-0 0 0 0 0 0 0 0 -0 0 0 0 0 0 0 0 0 0 0 -0 -0 0 0 0 0 0 0 0 0 -0 0 0 0 0 0 0 0 0 0 -0 0 0 0 0 0 0 0
-0 0 0 0 0 0 0 0 -0 0 0 0 0 0 0 0 0 0 -0 -0 0 0 0 0 0 0 0 0 0 0 0 0 0 0 0 0 0 0 -0 0 0 0 0 0 0 0 0
0 0 0 0 0 0 0 -0 -0 0 0 0 0 1 1 1 0 0 -0 -0 0 0 0 0 0 0 0 0 0 0 0 0 0 0 0 0 0 0 0 0 0 0 -0 0 0 0 0
0 0 0 0 0 0 0 0 0 0 0 0 0 1 1 0 0 0 -0 0 0 0 0 0 0 0 0 0 0 0 0 0 0 0 0 0 0 0 -0 0 0 0 -0 0 0 0 0
0 0 0 0 0 0 0 0 0 0 0 0 1 0 0 0 0 0 0 0 0 0 0 0 0 0 0 0 0 0 0 0 0 0 0 0 0 0 0 0 0 0 0 -0 -0 0 -0
0 0 0 0 0 0 0 -0 0 0 0 0 1 0 0 0 0 0 0 0 0 0 0 0 0 0 0 0 0 0 0 0 0 0 0 0 0 0 0 0 0 0 -0 -0 -0 0 0
0 0 0 0 0 -0 0 0 0 0 0 0 1 1 1 0 1 0 0 0 0 0 0 0 0 0 0 0 0 0 0 0 0 0 0 0 0 0 0 0 0 0 0 0 0 0 0
0 0 0 0 0 -0 -0 0 0 0 0 0 1 0 0 1 1 0 0 0 0 0 0 0 0 0 0 -0 -0 -0 -0 0 0 0 0 0 0 0 0 0 0 0 0 0 0 0 0
0 0 0 0 -0 -0 -0 0 0 0 0 0 2 1 1 3 0 0 0 0 0 0 0 0 0 0 0 0 0 0 0 0 0 0 0 0 0 0 0 0 0 0 0 0 0 0 0
0 0 0 0 -0 -0 0 0 0 0 0 0 5 2 1 1 0 0 0 0 1 1 0 0 0 0 0 0 0 0 -0 0 -0 -0 0 0 0 0 0 0 0 0 0 0 0 0 0
0 0 0 0 0 0 0 0 0 0 0 0 3 2 0 0 0 0 0 0 0 0 1 0 0 0 0 0 0 0 0 0 -0 -0 0 0 0 0 0 0 0 0 0 0 0 0 0
0 -0 0 0 0 0 0 0 0 0 0 0 3 3 1 0 0 0 0 0 0 0 1 0 0 0 0 0 0 0 0 0 0 0 0 0 0 0 0 0 0 0 0 0 0 0 0
0 0 0 0 0 0 0 0 0 0 0 0 3 2 3 1 1 1 1 0 0 1 1 0 0 0 0 0 1 0 0 0 0 0 0 0 0 0 0 0 0 0 0 0 0 0 0
Wind_Speed_500mb
63 59 55 51 47 42 40 41 40 36 34 36 34 31 31 33 34 36 36 37 32 28 24 19 16 15 13 12 22 12 0 19 33 33 25 25 26 28 21 26 28 19 14 4 5 10 19
77 67 62 61 53 48 43 40 40 35 33 36 33 30 31 32 31 34 34 33 27 25 19 15 13 13 11 21 1 3 5 21 22 26 25 24 15 18 18 24 26 21 13 11 15 14 10
78 79 68 64 59 52 48 41 39 36 35 36 33 29 30 30 31 31 31 28 23 21 16 11 10 13 19 29 1 5 5 17 25 25 21 22 15 14 7 14 11 12 17 21 23 27 16
52 78 77 67 60 58 52 45 39 36 36 38 33 29 28 28 30 31 26 22 19 17 12 9 10 12 19 10 11 15 16 13 24 27 22 12 19 20 18 5 13 21 21 25 26 24 11
61 56 80 78 65 63 58 49 43 39 39 38 34 29 28 27 27 29 21 15 15 14 10 9 7 8 13 11 10 7 19 8 15 22 19 12 13 22 16 22 18 17 14 17 20 26 21
72 63 56 82 74 63 60 52 46 42 41 38 34 30 29 27 26 24 14 9 10 10 11 11 12 12 18 13 5 6 11 16 14 23 17 12 20 16 19 21 16 13 24 27 26 21 24
84 75 62 65 80 73 63 58 49 44 43 39 33 32 29 26 26 19 10 4 7 9 22 26 4 16 7 6 9 10 14 13 18 24 13 15 12 15 13 19 17 25 18 25 29 13 20
89 86 71 64 77 73 69 63 54 47 45 39 35 33 28 27 25 20 21 16 13 7 16 35 35 28 23 9 11 15 12 14 13 19 23 17 32 20 12 10 10 10 11 24 15 19 17
78 80 78 70 72 80 78 66 58 50 46 41 37 34 29 28 24 30 30 32 5 12 14 23 30 24 14 17 25 25 22 26 17 27 23 20 7 10 13 15 17 10 18 22 23 23 27
82 82 74 69 73 79 81 70 64 55 49 44 41 35 32 25 21 20 27 25 18 18 10 23 20 18 16 16 21 11 14 8 8 11 10 6 18 11 6 11 7 19 5 21 6 17 27
91 85 85 78 77 79 80 73 66 59 51 47 44 39 35 26 12 22 8 11 13 8 10 34 28 16 16 24 17 22 13 10 24 12 14 21 20 24 23 7 9 24 14 12 14 24 10
97 89 86 83 77 73 81 76 71 62 54 50 48 42 37 41 43 29 11 9 11 9 14 16 20 23 23 27 16 27 23 15 9 12 22 26 3 5 11 4 6 7 9 11 14 20 14
93 94 89 84 79 78 82 85 75 65 57 53 51 46 49 45 18 21 21 16 12 18 13 24 33 29 29 21 19 23 32 28 22 22 23 18 16 9 11 12 10 18 17 16 16 16 20
80 73 93 82 84 86 80 87 80 64 60 56 52 49 52 50 25 18 22 17 25 29 27 8 30 29 25 21 22 22 31 35 34 27 20 24 19 25 17 21 8 19 25 18 12 11 21
85 74 85 87 80 88 77 94 80 64 64 59 53 49 56 63 48 26 28 21 28 18 22 20 23 26 27 21 13 24 29 31 31 25 26 16 12 12 3 5 14 14 16 14 11 5 15
99 84 78 82 81 86 80 83 86 67 70 66 49 49 61 62 58 24 20 31 39 6 13 24 32 32 30 29 21 28 25 10 12 9 11 2 5 5 11 9 11 16 5 9 11 9 18
77 91 76 82 79 82 82 83 92 74 76 63 43 23 39 56 53 29 24 33 35 20 19 23 34 26 29 27 28 30 19 15 13 15 12 12 15 14 8 20 22 15 20 13 9 4 9
73 91 83 81 78 78 83 82 86 76 78 70 53 23 42 63 34 38 30 44 23 22 20 18 14 19 25 24 25 23 26 11 16 15 20 12 9 11 25 10 10 20 15 20 10 11 5
73 89 80 83 81 77 78 82 79 80 94 78 61 37 42 64 26 26 39 43 28 22 24 25 22 18 17 21 20 24 21 11 11 16 11 13 14 15 13 13 14 18 21 17 9 1 15
73 80 75 78 72 81 73 76 79 85 95 78 57 21 25 38 62 37 48 39 35 18 17 26 23 20 22 15 12 16 16 8 9 9 1 1 23 19 20 12 3 24 25 25 25 13 18
64 60 88 77 75 77 73 69 84 92 95 71 64 28 42 32 42 41 41 38 44 24 22 29 22 31 25 17 18 16 18 12 12 11 12 9 15 25 27 12 12 17 19 26 33 32 27
54 63 74 81 81 73 79 66 83 92 97 65 45 43 56 55 66 40 40 45 47 36 30 29 20 30 24 19 21 20 23 19 14 19 16 10 8 3 10 16 15 21 24 28 29 33 33
59 64 70 77 80 76 79 81 94 103 112 61 48 39 63 52 45 36 35 40 44 31 5 8 23 17 21 12 17 22 17 7 7 14 19 10 9 8 9 6 9 13 31 33 32 33 28
63 67 69 77 70 71 72 95 91 109 116 63 35 37 42 27 35 37 40 39 38 32 21 11 16 17 13 33 33 29 26 19 14 11 10 10 9 4 1 3 2 8 1 10 19 30 34
71 66 68 68 64 69 84 84 97 109 114 76 36 35 28 8 31 50 40 38 41 25 19 24 10 9 42 19 7 9 5 5 5 6 7 6 8 5 5 13 17 20 13 4 7 14 13
62 63 69 66 70 67 80 85 96 109 114 78 23 32 41 23 27 54 38 48 23 23 14 10 21 31 12 4 4 9 9 9 9 12 5 7 1 8 6 5 8 7 8 2 3 13 16
62 64 66 62 67 101 91 76 99 103 105 64 16 35 37 29 41 37 34 34 38 26 13 16 18 11 4 5 4 7 8 4 9 10 8 6 3 12 12 7 11 5 3 4 9 6 12
63 64 64 84 85 75 74 94 102 105 102 52 18 37 37 25 21 17 21 33 44 39 14 24 16 6 6 6 7 6 3 8 5 3 10 12 13 6 5 5 11 11 11 3 7 9 10
60 66 82 72 61 75 84 91 96 104 100 47 18 44 32 19 14 16 24 26 26 29 33 40 13 27 21 9 3 4 3 4 1 5 5 7 8 3 11 3 8 13 9 6 12 17 21
Wind_Direction_500mb
249 250 255 263 270 277 283 288 291 291 266 263 271 281 290 295 300 302 306 304 302 300 294 294 291 295 306 276 263 339 172 159 174 177 193 192 202 217 223 209 203 232 156 266 252 142 147
244 245 251 254 263 270 275 281 285 285 262 261 267 277 287 293 297 302 304 301 300 294 286 280 285 286 302 265 250 298 37 180 178 179 195 204 224 236 248 208 203 188 254 175 175 169 172
247 243 246 247 252 261 270 274 280 279 260 260 266 273 284 291 295 299 301 298 295 284 277 273 276 286 271 232 237 228 208 192 196 193 205 217 232 238 305 223 240 221 201 170 175 176 198
262 243 242 245 243 250 262 267 270 271 259 260 264 268 280 286 292 296 295 293 286 274 268 262 267 293 260 249 245 236 222 238 214 212 227 252 240 262 267 336 205 214 207 182 166 182 181
263 256 241 240 242 245 251 260 264 264 259 258 262 264 273 279 286 288 288 284 276 269 253 244 287 298 269 234 256 253 215 218 196 198 210 254 207 227 222 240 190 211 192 164 172 207 167
264 260 252 238 238 242 242 251 256 258 257 255 258 261 268 275 279 277 271 267 262 250 237 256 254 261 247 210 188 202 178 159 154 169 179 203 204 224 222 215 195 164 237 167 161 170 188
262 261 254 243 235 237 238 245 249 253 255 251 250 256 262 268 271 263 224 175 268 231 225 216 260 250 131 282 219 213 172 182 143 173 183 204 232 236 183 214 270 197 185 185 124 146 225
257 259 257 245 230 232 236 236 245 247 251 248 244 249 255 260 259 236 203 218 304 337 278 233 247 259 269 273 228 209 179 234 186 234 142 196 210 237 204 187 250 250 236 115 122 173 252
255 252 252 243 233 226 230 236 239 242 246 243 237 241 244 251 248 230 212 213 281 333 249 189 228 242 233 198 220 199 193 224 213 186 207 310 92 156 191 193 229 236 217 158 176 182 231
246 253 247 244 237 225 227 232 237 235 240 239 233 233 236 235 239 225 230 216 250 291 256 165 205 214 201 215 221 193 229 239 216 177 107 294 197 202 217 215 256 264 102 220 195 197 215
240 245 249 242 233 225 222 226 231 228 232 231 230 229 229 214 179 191 151 205 218 165 236 159 167 148 177 209 220 185 201 170 244 234 220 191 176 201 209 73 292 109 237 208 210 240 243
241 241 245 241 231 231 220 221 224 226 227 225 223 224 222 210 218 181 206 143 179 230 221 167 166 185 187 211 218 175 182 220 215 245 234 255 56 301 51 100 266 130 168 213 239 254 252
241 241 239 240 231 228 221 219 219 222 221 221 220 219 222 217 208 207 182 160 208 216 156 169 189 187 203 180 187 203 191 196 214 210 218 178 171 120 180 145 159 203 218 225 227 217 237
238 241 235 235 229 227 220 219 218 218 217 216 217 218 220 216 211 205 180 204 226 209 205 161 180 188 209 169 195 208 195 211 216 247 248 193 183 178 178 257 235 219 251 249 277 274 272
242 235 229 230 227 224 222 217 216 213 211 213 211 219 223 213 195 172 204 205 217 213 190 181 186 191 200 177 226 203 213 215 202 222 258 237 143 133 239 228 264 184 245 324 306 292 283
239 238 228 226 225 219 220 217 217 210 207 208 198 214 225 211 197 186 220 217 226 253 213 192 188 198 192 194 204 200 195 201 167 237 281 321 266 175 129 213 214 272 26 217 226 257 256
235 239 226 221 220 219 218 214 214 210 203 199 188 199 223 201 186 199 213 202 229 193 200 204 202 193 219 187 203 197 203 144 199 184 237 265 249 149 169 211 228 182 232 233 303 291 285
232 235 225 217 216 217 216 213 216 210 196 189 186 207 173 183 185 201 213 208 212 187 200 212 272 191 223 195 206 217 225 224 170 194 209 212 244 207 230 84 306 299 267 207 229 212 227
229 230 219 212 213 212 214 212 216 209 193 177 192 177 174 170 197 199 209 213 191 205 200 198 202 212 211 208 208 223 217 83 178 209 222 184 228 225 230 206 218 239 230 238 225 326 238
232 225 210 207 218 212 211 213 215 211 190 179 184 170 165 193 211 195 203 198 201 214 203 197 201 176 188 197 211 195 192 155 187 202 295 140 243 229 244 275 300 207 241 218 215 223 245
218 199 200 204 205 224 212 209 206 206 187 182 202 195 181 182 202 196 202 200 197 180 226 195 191 204 197 207 190 206 185 160 183 178 193 237 238 238 262 291 291 282 259 224 234 237 252
198 195 201 204 203 209 217 211 204 195 184 199 208 194 180 172 196 207 194 216 194 193 182 196 215 203 206 195 208 212 196 192 185 181 197 199 228 276 254 244 264 265 256 253 243 249 254
202 202 201 205 205 208 213 206 204 186 184 194 208 200 178 168 190 202 194 212 194 180 209 242 214 167 195 84 67 51 78 78 121 178 196 185 171 182 246 359 296 288 239 248 248 248 251
202 204 206 206 204 207 211 202 201 188 186 184 199 179 166 175 186 195 189 212 193 179 172 158 180 181 117 124 102 83 84 87 97 71 157 166 178 171 246 228 294 262 277 291 269 264 256
204 208 207 209 207 205 213 207 200 187 184 193 194 184 176 135 188 196 189 208 191 149 136 133 68 117 144 146 127 126 110 93 124 87 130 224 166 152 183 223 289 286 192 243 238 286 328
207 206 203 205 201 211 201 203 187 184 179 199 184 193 159 153 197 190 185 202 158 146 141 98 120 130 136 124 138 191 195 218 161 151 130 95 125 226 168 221 237 74 73 92 212 258 49
202 200 201 206 198 200 207 192 184 183 180 194 201 175 162 164 185 177 197 202 190 173 140 137 163 156 180 111 124 188 202 327 187 192 188 138 215 214 206 252 283 48 170 210 238 40 14
198 200 204 181 191 197 174 175 181 179 180 184 202 168 168 151 134 181 198 189 204 197 160 141 140 146 164 163 180 176 151 196 222 205 180 184 174 189 180 209 261 140 140 229 35 317 336
200 175 178 195 181 167 174 178 180 180 178 176 177 163 165 155 125 153 178 187 189 204 196 174 209 156 176 173 85 113 128 41 66 227 190 219 228 260 213 229 110 184 310 298 305 301 305
Wind_Speed_850mb
63 59 55 51 47 42 40 41 40 36 34 36 34 31 31 33 34 36 36 37 32 28 24 19 16 15 13 12 22 12 0 19 33 33 25 25 26 28 21 26 28 19 14 4 5 10 19
77 67 62 61 53 48 43 40 40 35 33 36 33 30 31 32 31 34 34 33 27 25 19 15 13 13 11 21 1 3 5 21 22 26 25 24 15 18 18 24 26 21 13 11 15 14 10
78 79 68 64 59 52 48 41 39 36 35 36 33 29 30 30 31 31 31 28 23 21 16 11 10 13 19 29 1 5 5 17 25 25 21 22 15 14 7 14 11 12 17 21 23 27 16
52 78 77 67 60 58 52 45 39 36 36 38 33 29 28 28 30 31 26 22 19 17 12 9 10 12 19 10 11 15 16 13 24 27 22 12 19 20 18 5 13 21 21 25 26 24 11
61 56 80 78 65 63 58 49 43 39 39 38 34 29 28 27 27 29 21 15 15 14 10 9 7 8 13 11 10 7 19 8 15 22 19 12 13 22 16 22 18 17 14 17 20 26 21
72 63 56 82 74 63 60 52 46 42 41 38 34 30 29 27 26 24 14 9 10 10 11 11 12 12 18 13 5 6 11 16 14 23 17 12 20 16 19 21 16 13 24 27 26 21 24
84 75 62 65 80 73 63 58 49 44 43 39 33 32 29 26 26 19 10 4 7 9 22 26 4 16 7 6 9 10 14 13 18 24 13 15 12 15 13 19 17 25 18 25 29 13 20
89 86 71 64 77 73 69 63 54 47 45 39 35 33 28 27 25 20 21 16 13 7 16 35 35 28 23 9 11 15 12 14 13 19 23 17 32 20 12 10 10 10 11 24 15 19 17
78 80 78 70 72 80 78 66 58 50 46 41 37 34 29 28 24 30 30 32 5 12 14 23 30 24 14 17 25 25 22 26 17 27 23 20 7 10 13 15 17 10 18 22 23 23 27
82 82 74 69 73 79 81 70 64 55 49 44 41 35 32 25 21 20 27 25 18 18 10 23 20 18 16 16 21 11 14 8 8 11 10 6 18 11 6 11 7 19 5 21 6 17 27
91 85 85 78 77 79 80 73 66 59 51 47 44 39 35 26 12 22 8 11 13 8 10 34 28 16 16 24 17 22 13 10 24 12 14 21 20 24 23 7 9 24 14 12 14 24 10
97 89 86 83 77 73 81 76 71 62 54 50 48 42 37 41 43 29 11 9 11 9 14 16 20 23 23 27 16 27 23 15 9 12 22 26 3 5 11 4 6 7 9 11 14 20 14
93 94 89 84 79 78 82 85 75 65 57 53 51 46 49 45 18 21 21 16 12 18 13 24 33 29 29 21 19 23 32 28 22 22 23 18 16 9 11 12 10 18 17 16 16 16 20
80 73 93 82 84 86 80 87 80 64 60 56 52 49 52 50 25 18 22 17 25 29 27 8 30 29 25 21 22 22 31 35 34 27 20 24 19 25 17 21 8 19 25 18 12 11 21
85 74 85 87 80 88 77 94 80 64 64 59 53 49 56 63 48 26 28 21 28 18 22 20 23 26 27 21 13 24 29 31 31 25 26 16 12 12 3 5 14 14 16 14 11 5 15
99 84 78 82 81 86 80 83 86 67 70 66 49 49 61 62 58 24 20 31 39 6 13 24 32 32 30 29 21 28 25 10 12 9 11 2 5 5 11 9 11 16 5 9 11 9 18
77 91 76 82 79 82 82 83 92 74 76 63 43 23 39 56 53 29 24 33 35 20 19 23 34 26 29 27 28 30 19 15 13 15 12 12 15 14 8 20 22 15 20 13 9 4 9
73 91 83 81 78 78 83 82 86 76 78 70 53 23 42 63 34 38 30 44 23 22 20 18 14 19 25 24 25 23 26 11 16 15 20 12 9 11 25 10 10 20 15 20 10 11 5
73 89 80 83 81 77 78 82 79 80 94 78 61 37 42 64 26 26 39 43 28 22 24 25 22 18 17 21 20 24 21 11 11 16 11 13 14 15 13 13 14 18 21 17 9 1 15
73 80 75 78 72 81 73 76 79 85 95 78 57 21 25 38 62 37 48 39 35 18 17 26 23 20 22 15 12 16 16 8 9 9 1 1 23 19 20 12 3 24 25 25 25 13 18
64 60 88 77 75 77 73 69 84 92 95 71 64 28 42 32 42 41 41 38 44 24 22 29 22 31 25 17 18 16 18 12 12 11 12 9 15 25 27 12 12 17 19 26 33 32 27
54 63 74 81 81 73 79 66 83 92 97 65 45 43 56 55 66 40 40 45 47 36 30 29 20 30 24 19 21 20 23 19 14 19 16 10 8 3 10 16 15 21 24 28 29 33 33
59 64 70 77 80 76 79 81 94 103 112 61 48 39 63 52 45 36 35 40 44 31 5 8 23 17 21 12 17 22 17 7 7 14 19 10 9 8 9 6 9 13 31 33 32 33 28
63 67 69 77 70 71 72 95 91 109 116 63 35 37 42 27 35 37 40 39 38 32 21 11 16 17 13 33 33 29 26 19 14 11 10 10 9 4 1 3 2 8 1 10 19 30 34
71 66 68 68 64 69 84 84 97 109 114 76 36 35 28 8 31 50 40 38 41 25 19 24 10 9 42 19 7 9 5 5 5 6 7 6 8 5 5 13 17 20 13 4 7 14 13
62 63 69 66 70 67 80 85 96 109 114 78 23 32 41 23 27 54 38 48 23 23 14 10 21 31 12 4 4 9 9 9 9 12 5 7 1 8 6 5 8 7 8 2 3 13 16
62 64 66 62 67 101 91 76 99 103 105 64 16 35 37 29 41 37 34 34 38 26 13 16 18 11 4 5 4 7 8 4 9 10 8 6 3 12 12 7 11 5 3 4 9 6 12
63 64 64 84 85 75 74 94 102 105 102 52 18 37 37 25 21 17 21 33 44 39 14 24 16 6 6 6 7 6 3 8 5 3 10 12 13 6 5 5 11 11 11 3 7 9 10
60 66 82 72 61 75 84 91 96 104 100 47 18 44 32 19 14 16 24 26 26 29 33 40 13 27 21 9 3 4 3 4 1 5 5 7 8 3 11 3 8 13 9 6 12 17 21
Wind_Direction_850mb
249 250 255 263 270 277 283 288 291 291 266 263 271 281 290 295 300 302 306 304 302 300 294 294 291 295 306 276 263 339 172 159 174 177 193 192 202 217 223 209 203 232 156 266 252 142 147
244 245 251 254 263 270 275 281 285 285 262 261 267 277 287 293 297 302 304 301 300 294 286 280 285 286 302 265 250 298 37 180 178 179 195 204 224 236 248 208 203 188 254 175 175 169 172
247 243 246 247 252 261 270 274 280 279 260 260 266 273 284 291 295 299 301 298 295 284 277 273 276 286 271 232 237 228 208 192 196 193 205 217 232 238 305 223 240 221 201 170 175 176 198
262 243 242 245 243 250 262 267 270 271 259 260 264 268 280 286 292 296 295 293 286 274 268 262 267 293 260 249 245 236 222 238 214 212 227 252 240 262 267 336 205 214 207 182 166 182 181
263 256 241 240 242 245 251 260 264 264 259 258 262 264 273 279 286 288 288 284 276 269 253 244 287 298 269 234 256 253 215 218 196 198 210 254 207 227 222 240 190 211 192 164 172 207 167
264 260 252 238 238 242 242 251 256 258 257 255 258 261 268 275 279 277 271 267 262 250 237 256 254 261 247 210 188 202 178 159 154 169 179 203 204 224 222 215 195 164 237 167 161 170 188
262 261 254 243 235 237 238 245 249 253 255 251 250 256 262 268 271 263 224 175 268 231 225 216 260 250 131 282 219 213 172 182 143 173 183 204 232 236 183 214 270 197 185 185 124 146 225
257 259 257 245 230 232 236 236 245 247 251 248 244 249 255 260 259 236 203 218 304 337 278 233 247 259 269 273 228 209 179 234 186 234 142 196 210 237 204 187 250 250 236 115 122 173 252
255 252 252 243 233 226 230 236 239 242 246 243 237 241 244 251 248 230 212 213 281 333 249 189 228 242 233 198 220 199 193 224 213 186 207 310 92 156 191 193 229 236 217 158 176 182 231
246 253 247 244 237 225 227 232 237 235 240 239 233 233 236 235 239 225 230 216 250 291 256 165 205 214 201 215 221 193 229 239 216 177 107 294 197 202 217 215 256 264 102 220 195 197 215
240 245 249 242 233 225 222 226 231 228 232 231 230 229 229 214 179 191 151 205 218 165 236 159 167 148 177 209 220 185 201 170 244 234 220 191 176 201 209 73 292 109 237 208 210 240 243
241 241 245 241 231 231 220 221 224 226 227 225 223 224 222 210 218 181 206 143 179 230 221 167 166 185 187 211 218 175 182 220 215 245 234 255 56 301 51 100 266 130 168 213 239 254 252
241 241 239 240 231 228 221 219 219 222 221 221 220 219 222 217 208 207 182 160 208 216 156 169 189 187 203 180 187 203 191 196 214 210 218 178 171 120 180 145 159 203 218 225 227 217 237
238 241 235 235 229 227 220 219 218 218 217 216 217 218 220 216 211 205 180 204 226 209 205 161 180 188 209 169 195 208 195 211 216 247 248 193 183 178 178 257 235 219 251 249 277 274 272
242 235 229 230 227 224 222 217 216 213 211 213 211 219 223 213 195 172 204 205 217 213 190 181 186 191 200 177 226 203 213 215 202 222 258 237 143 133 239 228 264 184 245 324 306 292 283
239 238 228 226 225 219 220 217 217 210 207 208 198 214 225 211 197 186 220 217 226 253 213 192 188 198 192 194 204 200 195 201 167 237 281 321 266 175 129 213 214 272 26 217 226 257 256
235 239 226 221 220 219 218 214 214 210 203 199 188 199 223 201 186 199 213 202 229 193 200 204 202 193 219 187 203 197 203 144 199 184 237 265 249 149 169 211 228 182 232 233 303 291 285
232 235 225 217 216 217 216 213 216 210 196 189 186 207 173 183 185 201 213 208 212 187 200 212 272 191 223 195 206 217 225 224 170 194 209 212 244 207 230 84 306 299 267 207 229 212 227
229 230 219 212 213 212 214 212 216 209 193 177 192 177 174 170 197 199 209 213 191 205 200 198 202 212 211 208 208 223 217 83 178 209 222 184 228 225 230 206 218 239 230 238 225 326 238
232 225 210 207 218 212 211 213 215 211 190 179 184 170 165 193 211 195 203 198 201 214 203 197 201 176 188 197 211 195 192 155 187 202 295 140 243 229 244 275 300 207 241 218 215 223 245
218 199 200 204 205 224 212 209 206 206 187 182 202 195 181 182 202 196 202 200 197 180 226 195 191 204 197 207 190 206 185 160 183 178 193 237 238 238 262 291 291 282 259 224 234 237 252
198 195 201 204 203 209 217 211 204 195 184 199 208 194 180 172 196 207 194 216 194 193 182 196 215 203 206 195 208 212 196 192 185 181 197 199 228 276 254 244 264 265 256 253 243 249 254
202 202 201 205 205 208 213 206 204 186 184 194 208 200 178 168 190 202 194 212 194 180 209 242 214 167 195 84 67 51 78 78 121 178 196 185 171 182 246 359 296 288 239 248 248 248 251
202 204 206 206 204 207 211 202 201 188 186 184 199 179 166 175 186 195 189 212 193 179 172 158 180 181 117 124 102 83 84 87 97 71 157 166 178 171 246 228 294 262 277 291 269 264 256
204 208 207 209 207 205 213 207 200 187 184 193 194 184 176 135 188 196 189 208 191 149 136 133 68 117 144 146 127 126 110 93 124 87 130 224 166 152 183 223 289 286 192 243 238 286 328
207 206 203 205 201 211 201 203 187 184 179 199 184 193 159 153 197 190 185 202 158 146 141 98 120 130 136 124 138 191 195 218 161 151 130 95 125 226 168 221 237 74 73 92 212 258 49
202 200 201 206 198 200 207 192 184 183 180 194 201 175 162 164 185 177 197 202 190 173 140 137 163 156 180 111 124 188 202 327 187 192 188 138 215 214 206 252 283 48 170 210 238 40 14
198 200 204 181 191 197 174 175 181 179 180 184 202 168 168 151 134 181 198 189 204 197 160 141 140 146 164 163 180 176 151 196 222 205 180 184 174 189 180 209 261 140 140 229 35 317 336
200 175 178 195 181 167 174 178 180 180 178 176 177 163 165 155 125 153 178 187 189 204 196 174 209 156 176 173 85 113 128 41 66 227 190 219 228 260 213 229 110 184 310 298 305 301 305